sat.trackr.live / text

‹ back to catalog

STARLINK-35843

NORAD 67606 · 2026-018T

PAYLOAD ACTIVE UNKNOWN

§ Identity

Operator
Country
US
Launch date
2026-01-29
Launch site
AFWTR
Launch vehicle
Mass (kg)
RCS (m²)

Purposes: comms

External: N2YO · Heavens-Above · Gunter

§ Orbital elements

Epoch: 2026-09-19T22:29:56.860224Z

Period
93.91 min
Inclination
97.2869°
Eccentricity
0.0000604
Mean motion
15.33452019 rev/d
Perigee alt
465.1 km
Apogee alt
465.9 km
Semi-major
6,843.7 km
B*
3.6963e-4
RAAN
326.3954°
Arg perigee
94.2939°
Mean anomaly
265.8373°
Rev number
3,710

§ Raw data

STARLINK-358431 67606U 26018T   26262.93746366  .00011879  00000+0  36963-3 0  99992 67606  97.2869 326.3954 0000604  94.2939 265.8373 15.33452019 37104

JSON: /api/v1/satellites/67606 · /tle

For live sub-satellite position, see the globe view (requires WebGL).

§ Visibility from observer

Set your observer location to see the next 7 days of passes ≥ 10°. The values pass through the URL so the page stays shareable.

No JS? Fill the form by hand. The geolocation button needs JavaScript.